Time,TemperatureF,DewpointF,PressureIn,WindDirection,WindDirectionDegrees,WindSpeedMPH,WindSpeedGustMPH,Humidity,HourlyPrecipIn,Conditions,Clouds,dailyrainin,SoftwareType,DateUTC
2013-04-25 00:02:00,50.7,45.1,0.00,WSW,252,2.9,6.4,81,0.00,,,0.00,WUHU216CR1000,2013-04-25 07:02:00,
2013-04-25 00:07:00,50.7,45.1,0.00,WSW,252,2.9,6.4,81,0.00,,,0.00,WUHU216CR1000,2013-04-25 07:07:00,
2013-04-25 00:17:00,50.7,45.2,0.00,WSW,256,2.2,6.4,81,0.00,,,0.00,WUHU216CR1000,2013-04-25 07:17:00,
2013-04-25 00:22:00,50.7,45.2,0.00,WSW,256,2.2,6.4,81,0.00,,,0.00,WUHU216CR1000,2013-04-25 07:22:00,
2013-04-25 00:32:00,50.8,45.3,0.00,West,281,2.5,6.4,81,0.00,,,0.00,WUHU216CR1000,2013-04-25 07:32:00,
2013-04-25 00:37:00,50.8,45.3,0.00,West,281,2.5,6.4,81,0.00,,,0.00,WUHU216CR1000,2013-04-25 07:37:00,
2013-04-25 00:47:00,50.4,45.0,0.00,NW,324,3.7,9.9,82,0.00,,,0.00,WUHU216CR1000,2013-04-25 07:47:00,
2013-04-25 00:52:00,50.4,45.0,0.00,NW,324,3.7,9.9,82,0.00,,,0.00,WUHU216CR1000,2013-04-25 07:52:00,
2013-04-25 01:02:00,49.6,44.7,0.00,NNW,343,3.0,8.2,83,0.00,,,0.00,WUHU216CR1000,2013-04-25 08:02:00,
2013-04-25 01:07:00,49.6,44.7,0.00,NNW,343,3.0,8.2,83,0.00,,,0.00,WUHU216CR1000,2013-04-25 08:07:00,
2013-04-25 01:17:00,48.8,44.5,0.00,NW,307,1.6,4.6,85,0.00,,,0.00,WUHU216CR1000,2013-04-25 08:17:00,
2013-04-25 01:22:00,48.8,44.5,0.00,NW,307,1.6,4.6,85,0.00,,,0.00,WUHU216CR1000,2013-04-25 08:22:00,
2013-04-25 01:32:00,48.3,44.6,0.00,WNW,287,2.3,4.6,87,0.00,,,0.00,WUHU216CR1000,2013-04-25 08:32:00,
2013-04-25 01:37:00,48.3,44.6,0.00,WNW,287,2.3,4.6,87,0.00,,,0.00,WUHU216CR1000,2013-04-25 08:37:00,
2013-04-25 01:47:00,48.3,44.6,0.00,WNW,287,2.3,4.6,87,0.00,,,0.00,WUHU216CR1000,2013-04-25 08:47:00,
2013-04-25 01:52:00,48.3,44.6,0.00,WNW,287,2.3,4.6,87,0.00,,,0.00,WUHU216CR1000,2013-04-25 08:52:00,
2013-04-25 02:02:00,48.3,44.6,0.00,WNW,287,2.3,4.6,87,0.00,,,0.00,WUHU216CR1000,2013-04-25 09:02:00,
2013-04-25 02:07:00,48.3,44.6,0.00,WNW,287,2.3,4.6,87,0.00,,,0.00,WUHU216CR1000,2013-04-25 09:07:00,
2013-04-25 02:17:00,48.3,44.6,0.00,WNW,287,2.3,4.6,87,0.00,,,0.00,WUHU216CR1000,2013-04-25 09:17:00,
2013-04-25 02:22:00,48.3,44.6,0.00,WNW,287,2.3,4.6,87,0.00,,,0.00,WUHU216CR1000,2013-04-25 09:22:00,
2013-04-25 02:32:00,48.3,44.6,0.00,WNW,287,2.3,4.6,87,0.00,,,0.00,WUHU216CR1000,2013-04-25 09:32:00,
2013-04-25 02:37:00,48.3,44.6,0.00,WNW,287,2.3,4.6,87,0.00,,,0.00,WUHU216CR1000,2013-04-25 09:37:00,
2013-04-25 02:47:00,50.3,45.6,0.00,NNW,346,4.9,8.2,84,0.00,,,0.00,WUHU216CR1000,2013-04-25 09:47:00,
2013-04-25 02:52:00,50.3,45.6,0.00,NNW,346,4.9,8.2,84,0.00,,,0.00,WUHU216CR1000,2013-04-25 09:52:00,
2013-04-25 03:02:00,50.4,45.6,0.00,NNW,332,4.4,9.9,84,0.00,,,0.00,WUHU216CR1000,2013-04-25 10:02:00,
2013-04-25 03:07:00,50.4,45.6,0.00,NNW,332,4.4,9.9,84,0.00,,,0.00,WUHU216CR1000,2013-04-25 10:07:00,
2013-04-25 03:17:00,50.6,45.8,0.00,NNW,338,4.8,9.9,83,0.00,,,0.00,WUHU216CR1000,2013-04-25 10:17:00,
2013-04-25 03:22:00,50.6,45.8,0.00,NNW,338,4.8,9.9,83,0.00,,,0.00,WUHU216CR1000,2013-04-25 10:22:00,
2013-04-25 03:32:00,50.7,45.9,0.00,NW,311,3.3,8.2,83,0.00,,,0.00,WUHU216CR1000,2013-04-25 10:32:00,
2013-04-25 03:37:00,50.7,45.9,0.00,NW,311,3.3,8.2,83,0.00,,,0.00,WUHU216CR1000,2013-04-25 10:37:00,
2013-04-25 03:47:00,51.0,46.3,0.00,NW,313,4.2,8.2,84,0.00,,,0.00,WUHU216CR1000,2013-04-25 10:47:00,
2013-04-25 03:52:00,51.0,46.3,0.00,NW,313,4.2,8.2,84,0.00,,,0.00,WUHU216CR1000,2013-04-25 10:52:00,
2013-04-25 04:02:00,51.1,46.3,0.00,NW,321,3.6,8.2,84,0.00,,,0.00,WUHU216CR1000,2013-04-25 11:02:00,
2013-04-25 04:07:00,51.1,46.3,0.00,NW,321,3.6,8.2,84,0.00,,,0.00,WUHU216CR1000,2013-04-25 11:07:00,
2013-04-25 04:17:00,51.0,46.4,0.00,NNW,334,4.4,9.9,84,0.00,,,0.00,WUHU216CR1000,2013-04-25 11:17:00,
2013-04-25 04:22:00,51.0,46.4,0.00,NNW,334,4.4,9.9,84,0.00,,,0.00,WUHU216CR1000,2013-04-25 11:22:00,
2013-04-25 04:32:00,51.0,46.4,0.00,NNW,333,3.3,8.2,84,0.00,,,0.00,WUHU216CR1000,2013-04-25 11:32:00,
2013-04-25 04:37:00,51.0,46.4,0.00,NNW,333,3.3,8.2,84,0.00,,,0.00,WUHU216CR1000,2013-04-25 11:37:00,
2013-04-25 04:47:00,50.9,46.5,0.00,NW,324,4.5,11.7,85,0.00,,,0.00,WUHU216CR1000,2013-04-25 11:47:00,
2013-04-25 04:52:00,50.9,46.5,0.00,NW,324,4.5,11.7,85,0.00,,,0.00,WUHU216CR1000,2013-04-25 11:52:00,
2013-04-25 05:02:00,51.0,46.7,0.00,NW,318,4.1,8.2,85,0.00,,,0.00,WUHU216CR1000,2013-04-25 12:02:00,
2013-04-25 05:07:00,51.0,46.7,0.00,NW,318,4.1,8.2,85,0.00,,,0.00,WUHU216CR1000,2013-04-25 12:07:00,
2013-04-25 05:17:00,51.0,46.8,0.00,NNW,328,3.9,8.2,86,0.00,,,0.00,WUHU216CR1000,2013-04-25 12:17:00,
2013-04-25 05:22:00,51.0,46.8,0.00,NNW,328,3.9,8.2,86,0.00,,,0.00,WUHU216CR1000,2013-04-25 12:22:00,
2013-04-25 05:32:00,51.0,46.8,0.00,NNW,332,3.2,11.7,85,0.00,,,0.00,WUHU216CR1000,2013-04-25 12:32:00,
2013-04-25 05:37:00,51.0,46.8,0.00,NNW,332,3.2,11.7,85,0.00,,,0.00,WUHU216CR1000,2013-04-25 12:37:00,
2013-04-25 05:47:00,50.9,46.8,0.00,WNW,285,3.4,9.9,86,0.00,,,0.00,WUHU216CR1000,2013-04-25 12:47:00,
2013-04-25 05:52:00,50.9,46.8,0.00,WNW,285,3.4,9.9,86,0.00,,,0.00,WUHU216CR1000,2013-04-25 12:52:00,
2013-04-25 06:02:00,51.0,47.0,0.00,NW,317,3.5,8.2,86,0.00,,,0.00,WUHU216CR1000,2013-04-25 13:02:00,
2013-04-25 06:07:00,51.0,47.0,0.00,NW,317,3.5,8.2,86,0.00,,,0.00,WUHU216CR1000,2013-04-25 13:07:00,
2013-04-25 06:17:00,51.0,46.9,0.00,WNW,299,2.9,6.4,86,0.00,,,0.00,WUHU216CR1000,2013-04-25 13:17:00,
2013-04-25 06:22:00,51.0,46.9,0.00,WNW,299,2.9,6.4,86,0.00,,,0.00,WUHU216CR1000,2013-04-25 13:22:00,
2013-04-25 06:32:00,50.9,46.9,0.00,NW,318,2.7,6.4,86,0.00,,,0.00,WUHU216CR1000,2013-04-25 13:32:00,
2013-04-25 06:37:00,50.9,46.9,0.00,NW,318,2.7,6.4,86,0.00,,,0.00,WUHU216CR1000,2013-04-25 13:37:00,
2013-04-25 06:47:00,50.9,46.9,0.00,NW,314,2.8,6.4,86,0.00,,,0.00,WUHU216CR1000,2013-04-25 13:47:00,
2013-04-25 06:52:00,50.9,46.9,0.00,NW,314,2.8,6.4,86,0.00,,,0.00,WUHU216CR1000,2013-04-25 13:52:00,
2013-04-25 07:02:00,51.0,47.0,0.00,West,280,2.9,8.2,86,0.00,,,0.00,WUHU216CR1000,2013-04-25 14:02:00,
2013-04-25 07:07:00,51.0,47.0,0.00,West,280,2.9,8.2,86,0.00,,,0.00,WUHU216CR1000,2013-04-25 14:07:00,
2013-04-25 07:17:00,51.1,47.0,0.00,WNW,287,4.6,9.9,86,0.00,,,0.00,WUHU216CR1000,2013-04-25 14:17:00,
2013-04-25 07:22:00,51.1,47.0,0.00,WNW,287,4.6,9.9,86,0.00,,,0.00,WUHU216CR1000,2013-04-25 14:22:00,
2013-04-25 07:32:00,51.1,47.0,0.00,West,267,4.0,8.2,86,0.00,,,0.00,WUHU216CR1000,2013-04-25 14:32:00,
2013-04-25 07:37:00,51.1,47.0,0.00,West,267,4.0,8.2,86,0.00,,,0.00,WUHU216CR1000,2013-04-25 14:37:00,
2013-04-25 07:47:00,51.3,47.0,0.00,West,268,3.3,8.2,85,0.00,,,0.00,WUHU216CR1000,2013-04-25 14:47:00,
2013-04-25 07:52:00,51.3,47.0,0.00,West,268,3.3,8.2,85,0.00,,,0.00,WUHU216CR1000,2013-04-25 14:52:00,
2013-04-25 08:02:00,51.2,46.9,0.00,West,264,4.1,9.9,85,0.00,,,0.00,WUHU216CR1000,2013-04-25 15:02:00,
2013-04-25 08:07:00,51.2,46.9,0.00,West,264,4.1,9.9,85,0.00,,,0.00,WUHU216CR1000,2013-04-25 15:07:00,
2013-04-25 08:17:00,51.4,47.0,0.00,West,275,3.6,8.2,85,0.00,,,0.00,WUHU216CR1000,2013-04-25 15:17:00,
2013-04-25 08:22:00,51.4,47.0,0.00,West,275,3.6,8.2,85,0.00,,,0.00,WUHU216CR1000,2013-04-25 15:22:00,
2013-04-25 08:32:00,51.6,46.8,0.00,West,261,3.8,8.2,84,0.00,,,0.00,WUHU216CR1000,2013-04-25 15:32:00,
2013-04-25 08:37:00,51.6,46.8,0.00,West,261,3.8,8.2,84,0.00,,,0.00,WUHU216CR1000,2013-04-25 15:37:00,
2013-04-25 08:47:00,51.8,46.9,0.00,West,276,3.4,8.2,83,0.00,,,0.00,WUHU216CR1000,2013-04-25 15:47:00,
2013-04-25 08:52:00,51.8,46.9,0.00,West,276,3.4,8.2,83,0.00,,,0.00,WUHU216CR1000,2013-04-25 15:52:00,
2013-04-25 09:02:00,52.1,47.0,0.00,WNW,290,3.4,6.4,82,0.00,,,0.00,WUHU216CR1000,2013-04-25 16:02:00,
2013-04-25 09:07:00,52.1,47.0,0.00,WNW,290,3.4,6.4,82,0.00,,,0.00,WUHU216CR1000,2013-04-25 16:07:00,
2013-04-25 09:17:00,53.0,46.9,0.00,West,278,4.3,11.7,80,0.00,,,0.00,WUHU216CR1000,2013-04-25 16:17:00,
2013-04-25 09:22:00,53.0,46.9,0.00,West,278,4.3,11.7,80,0.00,,,0.00,WUHU216CR1000,2013-04-25 16:22:00,
2013-04-25 09:32:00,53.4,46.7,0.00,West,278,4.5,9.9,78,0.00,,,0.00,WUHU216CR1000,2013-04-25 16:32:00,
2013-04-25 09:37:00,53.4,46.7,0.00,West,278,4.5,9.9,78,0.00,,,0.00,WUHU216CR1000,2013-04-25 16:37:00,
2013-04-25 09:47:00,54.2,46.8,0.00,West,278,3.7,8.2,76,0.00,,,0.00,WUHU216CR1000,2013-04-25 16:47:00,
2013-04-25 09:52:00,54.2,46.8,0.00,West,278,3.7,8.2,76,0.00,,,0.00,WUHU216CR1000,2013-04-25 16:52:00,
2013-04-25 10:02:00,54.3,46.7,0.00,West,277,5.0,9.9,75,0.00,,,0.00,WUHU216CR1000,2013-04-25 17:02:00,
2013-04-25 10:07:00,54.3,46.7,0.00,West,277,5.0,9.9,75,0.00,,,0.00,WUHU216CR1000,2013-04-25 17:07:00,
2013-04-25 10:17:00,55.6,47.1,0.00,WNW,288,4.2,9.9,73,0.00,,,0.00,WUHU216CR1000,2013-04-25 17:17:00,
2013-04-25 10:22:00,55.6,47.1,0.00,WNW,288,4.2,9.9,73,0.00,,,0.00,WUHU216CR1000,2013-04-25 17:22:00,
2013-04-25 10:32:00,57.2,47.5,0.00,NW,308,4.0,8.2,70,0.00,,,0.00,WUHU216CR1000,2013-04-25 17:32:00,
2013-04-25 10:37:00,57.2,47.5,0.00,NW,308,4.0,8.2,70,0.00,,,0.00,WUHU216CR1000,2013-04-25 17:37:00,
2013-04-25 10:47:00,58.5,47.5,0.00,WNW,300,4.1,9.9,67,0.00,,,0.00,WUHU216CR1000,2013-04-25 17:47:00,
2013-04-25 10:52:00,58.5,47.5,0.00,WNW,300,4.1,9.9,67,0.00,,,0.00,WUHU216CR1000,2013-04-25 17:52:00,
2013-04-25 11:02:00,58.7,47.5,0.00,West,281,4.3,8.2,66,0.00,,,0.00,WUHU216CR1000,2013-04-25 18:02:00,
2013-04-25 11:07:00,58.7,47.5,0.00,West,281,4.3,8.2,66,0.00,,,0.00,WUHU216CR1000,2013-04-25 18:07:00,
2013-04-25 11:17:00,59.7,48.0,0.00,NNW,333,4.0,8.2,65,0.00,,,0.00,WUHU216CR1000,2013-04-25 18:17:00,
2013-04-25 11:22:00,59.7,48.0,0.00,NNW,333,4.0,8.2,65,0.00,,,0.00,WUHU216CR1000,2013-04-25 18:22:00,
2013-04-25 11:32:00,60.2,47.9,0.00,WSW,240,5.5,13.5,64,0.00,,,0.00,WUHU216CR1000,2013-04-25 18:32:00,
2013-04-25 11:37:00,60.2,47.9,0.00,WSW,240,5.5,13.5,64,0.00,,,0.00,WUHU216CR1000,2013-04-25 18:37:00,
2013-04-25 11:47:00,60.2,47.9,0.00,WSW,240,5.5,13.5,64,0.00,,,0.00,WUHU216CR1000,2013-04-25 18:47:00,
2013-04-25 11:52:00,60.2,47.9,0.00,WSW,240,5.5,13.5,64,0.00,,,0.00,WUHU216CR1000,2013-04-25 18:52:00,
2013-04-25 12:02:00,61.7,48.3,0.00,NW,311,4.2,9.9,61,0.00,,,0.00,WUHU216CR1000,2013-04-25 19:02:00,
2013-04-25 12:07:00,61.7,48.3,0.00,NW,311,4.2,9.9,61,0.00,,,0.00,WUHU216CR1000,2013-04-25 19:07:00,
2013-04-25 12:17:00,63.2,48.7,0.00,West,268,5.7,11.7,59,0.00,,,0.00,WUHU216CR1000,2013-04-25 19:17:00,
2013-04-25 12:22:00,63.2,48.7,0.00,West,268,5.7,11.7,59,0.00,,,0.00,WUHU216CR1000,2013-04-25 19:22:00,
2013-04-25 12:32:00,62.8,48.5,0.00,WSW,241,9.1,17.1,60,0.00,,,0.00,WUHU216CR1000,2013-04-25 19:32:00,
2013-04-25 12:37:00,62.8,48.5,0.00,WSW,241,9.1,17.1,60,0.00,,,0.00,WUHU216CR1000,2013-04-25 19:37:00,
2013-04-25 12:47:00,63.3,48.7,0.00,WSW,241,10.2,18.9,59,0.00,,,0.00,WUHU216CR1000,2013-04-25 19:47:00,
2013-04-25 12:52:00,63.3,48.7,0.00,WSW,241,10.2,18.9,59,0.00,,,0.00,WUHU216CR1000,2013-04-25 19:52:00,
2013-04-25 13:02:00,63.5,48.9,0.00,WSW,238,10.7,18.9,59,0.00,,,0.00,WUHU216CR1000,2013-04-25 20:02:00,
2013-04-25 13:07:00,63.5,48.9,0.00,WSW,238,10.7,18.9,59,0.00,,,0.00,WUHU216CR1000,2013-04-25 20:07:00,
2013-04-25 13:17:00,63.4,49.1,0.00,WSW,242,10.8,18.9,60,0.00,,,0.00,WUHU216CR1000,2013-04-25 20:17:00,
2013-04-25 13:22:00,63.4,49.1,0.00,WSW,242,10.8,18.9,60,0.00,,,0.00,WUHU216CR1000,2013-04-25 20:22:00,
2013-04-25 13:32:00,64.3,49.4,0.00,WSW,240,10.0,17.1,58,0.00,,,0.00,WUHU216CR1000,2013-04-25 20:32:00,
2013-04-25 13:37:00,64.3,49.4,0.00,WSW,240,10.0,17.1,58,0.00,,,0.00,WUHU216CR1000,2013-04-25 20:37:00,
2013-04-25 13:47:00,64.2,49.1,0.00,WSW,240,11.5,18.9,58,0.00,,,0.00,WUHU216CR1000,2013-04-25 20:47:00,
2013-04-25 13:52:00,64.2,49.1,0.00,WSW,240,11.5,18.9,58,0.00,,,0.00,WUHU216CR1000,2013-04-25 20:52:00,
2013-04-25 14:02:00,64.2,49.0,0.00,WSW,247,11.3,20.7,58,0.00,,,0.00,WUHU216CR1000,2013-04-25 21:02:00,
2013-04-25 14:07:00,64.2,49.0,0.00,WSW,247,11.3,20.7,58,0.00,,,0.00,WUHU216CR1000,2013-04-25 21:07:00,
2013-04-25 14:17:00,64.8,49.0,0.00,WSW,246,10.7,18.9,57,0.00,,,0.00,WUHU216CR1000,2013-04-25 21:17:00,
2013-04-25 14:22:00,64.8,49.0,0.00,WSW,246,10.7,18.9,57,0.00,,,0.00,WUHU216CR1000,2013-04-25 21:22:00,
2013-04-25 14:32:00,64.3,49.0,0.00,WSW,243,11.3,18.9,57,0.00,,,0.00,WUHU216CR1000,2013-04-25 21:32:00,
2013-04-25 14:37:00,64.3,49.0,0.00,WSW,243,11.3,18.9,57,0.00,,,0.00,WUHU216CR1000,2013-04-25 21:37:00,
2013-04-25 14:47:00,63.8,49.1,0.00,WSW,239,12.7,18.9,59,0.00,,,0.00,WUHU216CR1000,2013-04-25 21:47:00,
2013-04-25 14:52:00,63.8,49.1,0.00,WSW,239,12.7,18.9,59,0.00,,,0.00,WUHU216CR1000,2013-04-25 21:52:00,
2013-04-25 15:02:00,63.9,49.2,0.00,WSW,245,12.1,20.7,59,0.00,,,0.00,WUHU216CR1000,2013-04-25 22:02:00,
2013-04-25 15:07:00,63.9,49.2,0.00,WSW,245,12.1,20.7,59,0.00,,,0.00,WUHU216CR1000,2013-04-25 22:07:00,
2013-04-25 15:17:00,63.7,49.3,0.00,WSW,241,12.5,22.5,59,0.00,,,0.00,WUHU216CR1000,2013-04-25 22:17:00,
2013-04-25 15:22:00,63.7,49.3,0.00,WSW,241,12.5,22.5,59,0.00,,,0.00,WUHU216CR1000,2013-04-25 22:22:00,
2013-04-25 15:32:00,63.6,49.3,0.00,WSW,248,10.6,18.9,60,0.00,,,0.00,WUHU216CR1000,2013-04-25 22:32:00,
2013-04-25 15:37:00,63.6,49.3,0.00,WSW,248,10.6,18.9,60,0.00,,,0.00,WUHU216CR1000,2013-04-25 22:37:00,
2013-04-25 15:47:00,64.0,49.2,0.00,WSW,241,11.2,18.9,59,0.00,,,0.00,WUHU216CR1000,2013-04-25 22:47:00,
2013-04-25 15:52:00,64.0,49.2,0.00,WSW,241,11.2,18.9,59,0.00,,,0.00,WUHU216CR1000,2013-04-25 22:52:00,
2013-04-25 16:02:00,63.1,49.0,0.00,WSW,246,11.9,22.5,60,0.00,,,0.00,WUHU216CR1000,2013-04-25 23:02:00,
2013-04-25 16:07:00,63.1,49.0,0.00,WSW,246,11.9,22.5,60,0.00,,,0.00,WUHU216CR1000,2013-04-25 23:07:00,
2013-04-25 16:12:00,63.1,49.0,0.00,WSW,246,11.9,22.5,60,0.00,,,0.00,WUHU216CR1000,2013-04-25 23:12:00,
2013-04-25 16:17:00,63.4,49.1,0.00,WSW,245,10.6,20.7,60,0.00,,,0.00,WUHU216CR1000,2013-04-25 23:17:00,
2013-04-25 16:22:00,63.4,49.1,0.00,WSW,245,10.6,20.7,60,0.00,,,0.00,WUHU216CR1000,2013-04-25 23:22:00,
2013-04-25 16:32:00,63.1,49.0,0.00,WSW,249,10.6,17.1,60,0.00,,,0.00,WUHU216CR1000,2013-04-25 23:32:00,
2013-04-25 16:37:00,63.1,49.0,0.00,WSW,249,10.6,17.1,60,0.00,,,0.00,WUHU216CR1000,2013-04-25 23:37:00,
2013-04-25 16:47:00,62.9,49.0,0.00,WSW,248,10.6,18.9,60,0.00,,,0.00,WUHU216CR1000,2013-04-25 23:47:00,
2013-04-25 16:52:00,62.9,49.0,0.00,WSW,248,10.6,18.9,60,0.00,,,0.00,WUHU216CR1000,2013-04-25 23:52:00,
2013-04-25 17:02:00,62.8,49.0,0.00,WSW,245,10.9,18.9,61,0.00,,,0.00,WUHU216CR1000,2013-04-26 00:02:00,
2013-04-25 17:07:00,62.8,49.0,0.00,WSW,245,10.9,18.9,61,0.00,,,0.00,WUHU216CR1000,2013-04-26 00:07:00,
2013-04-25 17:17:00,62.2,48.8,0.00,WSW,244,10.9,18.9,61,0.00,,,0.00,WUHU216CR1000,2013-04-26 00:17:00,
2013-04-25 17:22:00,62.2,48.8,0.00,WSW,244,10.9,18.9,61,0.00,,,0.00,WUHU216CR1000,2013-04-26 00:22:00,
2013-04-25 17:32:00,61.8,48.6,0.00,WSW,239,11.1,17.1,62,0.00,,,0.00,WUHU216CR1000,2013-04-26 00:32:00,
2013-04-25 17:37:00,61.8,48.6,0.00,WSW,239,11.1,17.1,62,0.00,,,0.00,WUHU216CR1000,2013-04-26 00:37:00,
2013-04-25 17:47:00,61.6,48.5,0.00,WSW,248,9.4,18.9,62,0.00,,,0.00,WUHU216CR1000,2013-04-26 00:47:00,
2013-04-25 17:52:00,61.6,48.5,0.00,WSW,248,9.4,18.9,62,0.00,,,0.00,WUHU216CR1000,2013-04-26 00:52:00,
2013-04-25 18:02:00,60.8,48.4,0.00,WSW,251,9.4,17.1,64,0.00,,,0.00,WUHU216CR1000,2013-04-26 01:02:00,
2013-04-25 18:07:00,60.8,48.4,0.00,WSW,251,9.4,17.1,64,0.00,,,0.00,WUHU216CR1000,2013-04-26 01:07:00,
2013-04-25 18:17:00,59.9,48.2,0.00,WSW,251,9.8,20.7,65,0.00,,,0.00,WUHU216CR1000,2013-04-26 01:17:00,
2013-04-25 18:22:00,59.9,48.2,0.00,WSW,251,9.8,20.7,65,0.00,,,0.00,WUHU216CR1000,2013-04-26 01:22:00,
2013-04-25 18:32:00,58.7,48.0,0.00,WSW,251,9.7,20.7,68,0.00,,,0.00,WUHU216CR1000,2013-04-26 01:32:00,
2013-04-25 18:37:00,58.7,48.0,0.00,WSW,251,9.7,20.7,68,0.00,,,0.00,WUHU216CR1000,2013-04-26 01:37:00,
2013-04-25 18:47:00,57.6,47.7,0.00,WSW,251,9.1,15.3,70,0.00,,,0.00,WUHU216CR1000,2013-04-26 01:47:00,
2013-04-25 18:52:00,57.6,47.7,0.00,WSW,251,9.1,15.3,70,0.00,,,0.00,WUHU216CR1000,2013-04-26 01:52:00,
2013-04-25 19:02:00,56.4,47.4,0.00,WSW,254,9.4,17.1,72,0.00,,,0.00,WUHU216CR1000,2013-04-26 02:02:00,
2013-04-25 19:07:00,56.4,47.4,0.00,WSW,254,9.4,17.1,72,0.00,,,0.00,WUHU216CR1000,2013-04-26 02:07:00,
2013-04-25 19:17:00,55.5,47.1,0.00,WSW,253,8.7,15.3,73,0.00,,,0.00,WUHU216CR1000,2013-04-26 02:17:00,
2013-04-25 19:22:00,55.5,47.1,0.00,WSW,253,8.7,15.3,73,0.00,,,0.00,WUHU216CR1000,2013-04-26 02:22:00,
2013-04-25 19:32:00,54.3,46.8,0.00,WSW,251,8.3,17.1,76,0.00,,,0.00,WUHU216CR1000,2013-04-26 02:32:00,
2013-04-25 19:37:00,54.3,46.8,0.00,WSW,251,8.3,17.1,76,0.00,,,0.00,WUHU216CR1000,2013-04-26 02:37:00,
2013-04-25 19:47:00,53.6,46.7,0.00,WSW,251,8.1,17.1,77,0.00,,,0.00,WUHU216CR1000,2013-04-26 02:47:00,
2013-04-25 19:52:00,53.6,46.7,0.00,WSW,251,8.1,17.1,77,0.00,,,0.00,WUHU216CR1000,2013-04-26 02:52:00,
2013-04-25 20:02:00,53.1,46.5,0.00,WSW,252,8.0,15.3,78,0.00,,,0.00,WUHU216CR1000,2013-04-26 03:02:00,
2013-04-25 20:07:00,53.1,46.5,0.00,WSW,252,8.0,15.3,78,0.00,,,0.00,WUHU216CR1000,2013-04-26 03:07:00,
2013-04-25 20:17:00,52.6,46.3,0.00,WSW,252,8.2,17.1,79,0.00,,,0.00,WUHU216CR1000,2013-04-26 03:17:00,
2013-04-25 20:22:00,52.6,46.3,0.00,WSW,252,8.2,17.1,79,0.00,,,0.00,WUHU216CR1000,2013-04-26 03:22:00,
2013-04-25 20:32:00,52.3,46.2,0.00,WSW,257,6.1,11.7,80,0.00,,,0.00,WUHU216CR1000,2013-04-26 03:32:00,
2013-04-25 20:37:00,52.3,46.2,0.00,WSW,257,6.1,11.7,80,0.00,,,0.00,WUHU216CR1000,2013-04-26 03:37:00,
2013-04-25 20:47:00,52.1,46.1,0.00,WSW,253,7.0,11.7,80,0.00,,,0.00,WUHU216CR1000,2013-04-26 03:47:00,
2013-04-25 20:52:00,52.1,46.1,0.00,WSW,253,7.0,11.7,80,0.00,,,0.00,WUHU216CR1000,2013-04-26 03:52:00,
2013-04-25 21:02:00,52.0,46.0,0.00,WSW,254,6.8,13.5,80,0.00,,,0.00,WUHU216CR1000,2013-04-26 04:02:00,
2013-04-25 21:07:00,52.0,46.0,0.00,WSW,254,6.8,13.5,80,0.00,,,0.00,WUHU216CR1000,2013-04-26 04:07:00,
2013-04-25 21:17:00,51.8,45.9,0.00,WSW,254,6.6,13.5,80,0.00,,,0.00,WUHU216CR1000,2013-04-26 04:17:00,
2013-04-25 21:22:00,51.8,45.9,0.00,WSW,254,6.6,13.5,80,0.00,,,0.00,WUHU216CR1000,2013-04-26 04:22:00,
2013-04-25 21:32:00,51.7,45.9,0.00,WSW,255,6.8,13.5,80,0.00,,,0.00,WUHU216CR1000,2013-04-26 04:32:00,
2013-04-25 21:37:00,51.7,45.9,0.00,WSW,255,6.8,13.5,80,0.00,,,0.00,WUHU216CR1000,2013-04-26 04:37:00,
2013-04-25 21:47:00,51.6,45.8,0.00,WSW,249,7.3,13.5,80,0.00,,,0.00,WUHU216CR1000,2013-04-26 04:47:00,
2013-04-25 21:52:00,51.6,45.8,0.00,WSW,249,7.3,13.5,80,0.00,,,0.00,WUHU216CR1000,2013-04-26 04:52:00,
2013-04-25 22:02:00,51.4,45.8,0.00,WSW,247,5.8,11.7,81,0.00,,,0.00,WUHU216CR1000,2013-04-26 05:02:00,
2013-04-25 22:07:00,51.4,45.8,0.00,WSW,247,5.8,11.7,81,0.00,,,0.00,WUHU216CR1000,2013-04-26 05:07:00,
2013-04-25 22:17:00,51.3,45.6,0.00,WSW,252,4.8,9.9,81,0.00,,,0.00,WUHU216CR1000,2013-04-26 05:17:00,
2013-04-25 22:22:00,51.3,45.6,0.00,WSW,252,4.8,9.9,81,0.00,,,0.00,WUHU216CR1000,2013-04-26 05:22:00,
2013-04-25 22:32:00,50.0,45.4,0.00,WSW,242,2.3,6.4,84,0.00,,,0.00,WUHU216CR1000,2013-04-26 05:32:00,
2013-04-25 22:37:00,50.0,45.4,0.00,WSW,242,2.3,6.4,84,0.00,,,0.00,WUHU216CR1000,2013-04-26 05:37:00,
2013-04-25 22:47:00,50.2,45.5,0.00,ENE,74,1.1,4.6,84,0.00,,,0.00,WUHU216CR1000,2013-04-26 05:47:00,
2013-04-25 22:52:00,50.2,45.5,0.00,ENE,74,1.1,4.6,84,0.00,,,0.00,WUHU216CR1000,2013-04-26 05:52:00,
2013-04-25 23:02:00,49.5,45.0,0.00,ENE,73,1.5,6.4,85,0.00,,,0.00,WUHU216CR1000,2013-04-26 06:02:00,
2013-04-25 23:07:00,49.5,45.0,0.00,ENE,73,1.5,6.4,85,0.00,,,0.00,WUHU216CR1000,2013-04-26 06:07:00,
2013-04-25 23:17:00,48.6,44.9,0.00,East,99,1.2,4.6,87,0.00,,,0.00,WUHU216CR1000,2013-04-26 06:17:00,
2013-04-25 23:22:00,48.6,44.9,0.00,East,99,1.2,4.6,87,0.00,,,0.00,WUHU216CR1000,2013-04-26 06:22:00,
2013-04-25 23:32:00,47.7,44.1,0.00,NW,325,0.3,2.8,87,0.00,,,0.00,WUHU216CR1000,2013-04-26 06:32:00,
2013-04-25 23:37:00,47.7,44.1,0.00,NW,325,0.3,2.8,87,0.00,,,0.00,WUHU216CR1000,2013-04-26 06:37:00,
2013-04-25 23:47:00,47.0,44.2,0.00,NNW,332,1.5,4.6,90,0.00,,,0.00,WUHU216CR1000,2013-04-26 06:47:00,
2013-04-25 23:52:00,47.0,44.2,0.00,NNW,332,1.5,4.6,90,0.00,,,0.00,WUHU216CR1000,2013-04-26 06:52:00,